Location: Waco, TX
(31.5480°N, 97.1670°W)
Time: 22:14:37
(UTC-05:00)

ISS - Pass Details

Date: 27 May 2017
Orbit: 402 x 409 km, 51.6° (Epoch: 23 May)

Event Time Altitude Azimuth Distance (km) Brightness Sun altitude
Rises 19:56:46 0° 216° (SW) 2,315 0.2 4.9°
Reaches altitude 10° 19:58:51 10° 212° (SSW) 1,459 -0.8 4.5°
Maximum altitude 20:02:05 59° 132° (SE) 474 -3.7 3.8°
Drops below altitude 10° 20:05:19 10° 53° (NE) 1,466 -1.3 3.2°
Sets 20:07:25 0° 49° (NE) 2,328 -0.2 2.8°
